Main page
METAR-TAF:

METAR-TAF

Airports :

Yellowstone Lake, Wyoming, United States

latitude: 44-32-40N, longitude: 110-25-16W, elevation: 7833 ft

Current weather observation

The report was made 22 minutes ago, at 22:56 UTC
Wind 7 mph from variable directions
Temperature 77°F
Humidity 18%
Pressure 30.20 in. Hg

METAR: KP60 232256Z AUTO VRB06KT 25/M01 A3020 RMK AO1 PK WND 21026/2223 SLP145 T02501006

Time: 17:18 (23:18 UTC)


TAF: missing

Weather observations and forecasts of more than 4000 airports (METAR and TAF reports).

The available stations are represented by yellow and red dots on the map.

Hover mouse over dot to see the name of the station.

Then click to see weather observations and forecasts.

To change the map : click on the green buttons with a black cross to zoom in, on the green button with a dash to zoom out, or on the green arrows for adjacent maps.


METAR-TAF: